Home   Weather   Mysuru   Past weeks

Flag for India Past Weather in Mysuru, Karnataka, India — Yesterday and Last 2 Weeks

Now
72 °F

Passing clouds.


Feels Like: 75 °F
Forecast: 61 / 82 °F
Wind: 7 mph from East

Location: Bangalore / Hindustan

Current Time: Dec 8, 2016 at 1:44:16 am

Latest Report: Dec 7, 2016 at 11:30 pm


Visibility: N/A

Pressure: 30.04 "Hg (27.54 "Hg at 749m altitude)

Humidity: 69%

Dew Point: 61 °F

Location of MysuruLocation

Past Weather in Mysuru — Graph

°F

Mysuru Temperature Yesterday

Maximum temperature yesterday: 81 °F (at 1:00 pm)
Minimum temperature yesterday: 59 °F (at 6:00 am)
Average temperature yesterday: 74 °F

High & Low Weather Summary for the Past Weeks

 TemperatureHumidityPressure
High86 °F (Nov 23, 2:00 pm)100% (Dec 2, 5:30 am)30.15 "Hg (Dec 2, 5:30 am)
Low48 °F (Dec 2, 5:30 am)15% (Nov 26, 2:00 pm)29.89 "Hg (Nov 23, 2:30 pm)
Average74 °F57%30.01 "Hg
* Reported Nov 22 11:30 pm — Dec 7 11:30 pm, Mysuru, Weather by CustomWeather, © 2016

Note: Actual official high and low records may vary slightly from our data, if they occured in-between our weather recording intervals... More about our weather records

Advertising

Mysuru Weather History for the Previous 24 Hours

Scroll right to see more
 ConditionsComfort  
Time TempWeatherWind HumidityBarometerVisibility
11:30 pm
Wed, Dec 7
72 °FPassing clouds.7 mph69%30.04 "HgN/A
10:30 pm72 °FPassing clouds.7 mph69%30.04 "HgN/A
9:30 pm72 °FPassing clouds.6 mph69%30.04 "HgN/A
8:30 pm73 °FPassing clouds.7 mph65%30.04 "HgN/A
7:30 pm73 °FPassing clouds.9 mph65%30.01 "HgN/A
6:30 pm75 °FPassing clouds.7 mph57%30.01 "HgN/A
5:30 pm75 °FScattered clouds.7 mph57%29.98 "HgN/A
5:00 pm77 °FScattered clouds.9 mph54%29.98 "HgN/A
4:30 pm77 °FScattered clouds.9 mph54%29.98 "HgN/A
4:00 pm77 °FScattered clouds.9 mph51%29.95 "HgN/A
3:30 pm79 °FScattered clouds.12 mph48%29.95 "HgN/A
3:00 pm79 °FScattered clouds.12 mph48%29.95 "HgN/A
2:30 pm81 °FScattered clouds.12 mph45%29.95 "HgN/A
2:00 pm81 °FScattered clouds.12 mph45%29.98 "HgN/A
1:30 pm81 °FScattered clouds.12 mph42%29.98 "HgN/A
1:00 pm81 °FPassing clouds.12 mph45%29.98 "HgN/A
12:30 pm79 °FSunny.12 mph45%30.01 "Hg10 mi
12:00 pm79 °FSunny.12 mph45%30.04 "Hg10 mi
11:30 am77 °FSunny.12 mph47%30.04 "Hg10 mi
11:00 am77 °FSunny.9 mph47%30.07 "Hg10 mi
10:30 am75 °FSunny.7 mph50%30.07 "Hg10 mi
10:00 am73 °FClear.7 mph47%30.07 "Hg5 mi
9:30 am72 °FClear.6 mph50%30.07 "Hg4 mi
9:00 am70 °FHaze.6 mph53%30.07 "Hg2 mi
8:30 am66 °FHaze.3 mph68%30.07 "Hg2 mi
8:00 am64 °FFog.3 mph78%30.07 "Hg1 mi
6:00 am59 °FClear.No wind88%30.01 "Hg4 mi
5:30 am61 °FClear.3 mph88%30.01 "Hg4 mi
Weather by CustomWeather, © 2016

See weather overviewHow to use our weather pages